contact:dominique.lefevre@mio.osupytheas.fr, maurice.libes@osupytheas.fr
Project:EMSO Ligure-ouest http://www.emso-fr.org/EMSO-France
Sensor Aquadopp, line 13 Serial AQD14315 
DOI : "https://doi.org/10.17882/74513; https://doi.org/10.17882/83244" 
Title:EMSO Ligure Ouest : Data ligne ALBATROSS capteur AQUADOPP - deploiement 2021
Id,Date,Profondeur,Latitude,Longitude,X_East,Y_North,Z_Up,Amplitude_X,Amplitude_Y,Amplitude_Z,Batterie,SoundSpeed,Heading,Pitch,Roll,Pressure,Temperature,Speed,Direction
, , m, degrees North, degrees East, m.s-1, m.s-1,m.s-1, 1, 1, 1, Volt, m.s-1, degree, degree, degree, dbar, degree_C, m.s-1, degree
09,2022-09-15T23:30:00,2000.0,42.79,6.0312,0.001,0.01,0.024,63.0,59.0,69.0,12.8,1504.7,139.2,-0.6,0.8,1992.639,13.28,0.01,5.7
09,2022-09-16T00:00:00,2000.0,42.79,6.0312,-0.01,0.007,0.009,64.0,58.0,62.0,12.8,1504.7,138.1,-0.6,0.9,1992.597,13.28,0.012,305.0
09,2022-09-16T00:30:00,2000.0,42.79,6.0312,-0.007,0.006,-0.002,63.0,61.0,69.0,12.8,1504.7,125.2,-0.5,0.9,1992.592,13.28,0.009,310.6
09,2022-09-16T01:00:00,2000.0,42.79,6.0312,-0.003,0.012,-0.008,67.0,60.0,64.0,12.8,1504.7,127.6,-0.6,1.0,1992.528,13.28,0.012,346.0
09,2022-09-16T02:00:00,2000.0,42.79,6.0312,0.0,-0.005,-0.001,63.0,57.0,61.0,12.8,1504.7,128.7,-0.6,1.0,1992.543,13.28,0.005,180.0
09,2022-09-16T02:30:00,2000.0,42.79,6.0312,0.002,0.009,-0.013,65.0,56.0,61.0,12.8,1504.7,127.0,-0.6,0.9,1992.497,13.28,0.009,12.5
09,2022-09-16T03:00:00,2000.0,42.79,6.0312,0.002,0.013,-0.004,60.0,60.0,62.0,12.8,1504.7,124.3,-0.6,1.0,1992.475,13.28,0.013,8.7
09,2022-09-16T03:30:00,2000.0,42.79,6.0312,-0.009,0.015,-0.018,57.0,61.0,63.0,12.8,1504.6,126.8,-0.6,1.0,1992.48,13.27,0.017,329.0
09,2022-09-16T04:00:00,2000.0,42.79,6.0312,0.0,0.004,0.012,66.0,56.0,60.0,12.8,1504.7,126.9,-0.6,1.1,1992.504,13.28,0.004,0.0
09,2022-09-16T04:30:00,2000.0,42.79,6.0312,0.003,0.013,0.014,60.0,56.0,65.0,12.8,1504.7,128.3,-0.6,1.1,1992.442,13.28,0.013,13.0
09,2022-09-16T05:00:00,2000.0,42.79,6.0312,0.0,0.015,0.0,63.0,63.0,65.0,12.8,1504.7,126.5,-0.6,1.1,1992.479,13.28,0.015,0.0
09,2022-09-16T05:30:00,2000.0,42.79,6.0312,-0.002,0.0,-0.003,68.0,62.0,61.0,12.8,1504.7,127.2,-0.6,1.0,1992.505,13.28,0.002,270.0
09,2022-09-16T06:00:00,2000.0,42.79,6.0312,0.012,0.005,-0.018,71.0,57.0,64.0,12.8,1504.7,126.7,-0.5,1.0,1992.494,13.28,0.013,67.4
09,2022-09-16T06:30:00,2000.0,42.79,6.0312,-0.009,0.0,-0.019,59.0,59.0,67.0,12.8,1504.7,128.8,-0.6,1.0,1992.478,13.28,0.009,270.0
09,2022-09-16T07:00:00,2000.0,42.79,6.0312,-0.006,0.002,0.011,62.0,60.0,64.0,12.8,1504.7,129.8,-0.5,0.9,1992.44,13.28,0.006,288.4
09,2022-09-16T07:30:00,2000.0,42.79,6.0312,-0.013,0.008,-0.024,60.0,59.0,62.0,12.8,1504.7,131.5,-0.6,1.0,1992.523,13.28,0.015,301.6
09,2022-09-16T08:00:00,2000.0,42.79,6.0312,0.002,-0.003,-0.017,63.0,58.0,60.0,12.8,1504.7,130.5,-0.6,1.0,1992.51,13.28,0.003,146.3
09,2022-09-16T08:30:00,2000.0,42.79,6.0312,-0.016,0.016,-0.015,63.0,58.0,60.0,12.8,1504.7,130.8,-0.5,1.0,1992.527,13.28,0.022,315.0
09,2022-09-16T09:00:00,2000.0,42.79,6.0312,0.001,0.017,-0.013,61.0,60.0,63.0,12.8,1504.7,131.1,-0.5,1.0,1992.573,13.28,0.017,3.4
09,2022-09-16T09:30:00,2000.0,42.79,6.0312,-0.021,0.015,-0.005,65.0,57.0,61.0,12.8,1504.7,132.7,-0.6,1.0,1992.609,13.28,0.025,305.5
09,2022-09-16T10:00:00,2000.0,42.79,6.0312,-0.03,-0.001,0.025,65.0,59.0,58.0,12.8,1504.7,131.6,-0.6,0.9,1992.622,13.28,0.03,268.1
09,2022-09-16T10:30:00,2000.0,42.79,6.0312,-0.009,0.004,-0.006,64.0,58.0,60.0,12.8,1504.7,133.5,-0.6,0.9,1992.61,13.28,0.009,294.0
09,2022-09-16T11:00:00,2000.0,42.79,6.0312,0.001,0.0,-0.004,64.0,57.0,67.0,12.8,1504.7,131.5,-0.6,1.0,1992.6,13.28,0.001,90.0
09,2022-09-16T11:30:00,2000.0,42.79,6.0312,-0.013,-0.002,0.014,61.0,63.0,62.0,12.8,1504.7,129.8,-0.6,0.9,1992.579,13.28,0.013,261.3
09,2022-09-16T12:00:00,2000.0,42.79,6.0312,-0.017,0.0,0.007,68.0,58.0,62.0,12.8,1504.7,131.4,-0.6,1.0,1992.57,13.28,0.017,270.0
09,2022-09-16T12:30:00,2000.0,42.79,6.0312,-0.004,0.006,-0.008,68.0,60.0,62.0,12.8,1504.7,134.8,-0.6,1.0,1992.56,13.28,0.007,326.3
09,2022-09-16T13:00:00,2000.0,42.79,6.0312,-0.014,0.009,0.018,63.0,61.0,64.0,12.8,1504.6,127.0,-0.6,1.0,1992.574,13.27,0.016,302.7
09,2022-09-16T13:30:00,2000.0,42.79,6.0312,-0.012,0.023,0.004,62.0,60.0,64.0,12.8,1504.6,133.4,-0.5,1.0,1992.568,13.27,0.025,332.4
09,2022-09-16T14:00:00,2000.0,42.79,6.0312,-0.036,0.003,-0.011,67.0,58.0,62.0,12.8,1504.6,130.4,-0.5,1.0,1992.534,13.27,0.036,274.8
09,2022-09-16T15:00:00,2000.0,42.79,6.0312,-0.004,0.006,0.005,63.0,59.0,62.0,12.8,1504.6,138.0,-0.6,1.0,1992.543,13.27,0.007,326.3
09,2022-09-16T15:30:00,2000.0,42.79,6.0312,0.001,0.007,-0.009,66.0,60.0,66.0,12.8,1504.6,137.4,-0.6,1.0,1992.511,13.27,0.007,8.1
09,2022-09-16T16:00:00,2000.0,42.79,6.0312,-0.02,0.0,-0.002,58.0,59.0,66.0,12.8,1504.6,138.0,-0.6,1.1,1992.535,13.27,0.02,270.0
09,2022-09-16T16:30:00,2000.0,42.79,6.0312,0.004,0.002,-0.011,62.0,60.0,61.0,12.8,1504.7,139.6,-0.6,1.0,1992.52,13.28,0.004,63.4
09,2022-09-16T17:00:00,2000.0,42.79,6.0312,-0.003,-0.005,0.006,61.0,60.0,64.0,12.8,1504.6,137.1,-0.6,1.0,1992.549,13.27,0.005,211.0
09,2022-09-16T17:30:00,2000.0,42.79,6.0312,0.004,0.002,0.003,65.0,58.0,61.0,12.8,1504.6,137.2,-0.6,1.0,1992.528,13.27,0.004,63.4
09,2022-09-16T18:00:00,2000.0,42.79,6.0312,0.013,0.0,-0.02,64.0,61.0,64.0,12.8,1504.6,136.9,-0.6,1.1,1992.506,13.27,0.013,90.0
09,2022-09-16T18:30:00,2000.0,42.79,6.0312,-0.014,-0.005,0.023,64.0,57.0,62.0,12.8,1504.7,136.9,-0.5,1.0,1992.498,13.28,0.014,250.4
09,2022-09-16T19:00:00,2000.0,42.79,6.0312,0.006,-0.005,-0.01,63.0,60.0,62.0,12.8,1504.7,136.8,-0.6,1.0,1992.477,13.28,0.007,129.8
09,2022-09-16T19:30:00,2000.0,42.79,6.0312,-0.028,0.001,-0.017,61.0,63.0,58.0,12.8,1504.7,139.1,-0.5,1.0,1992.553,13.28,0.028,272.0
09,2022-09-16T20:00:00,2000.0,42.79,6.0312,-0.008,0.0,-0.007,62.0,58.0,67.0,12.8,1504.7,141.5,-0.6,0.9,1992.507,13.28,0.008,270.0
09,2022-09-16T20:30:00,2000.0,42.79,6.0312,-0.022,0.004,0.005,63.0,59.0,58.0,12.8,1504.7,145.0,-0.5,0.9,1992.513,13.28,0.022,280.3
09,2022-09-16T21:00:00,2000.0,42.79,6.0312,-0.012,-0.023,-0.002,62.0,57.0,59.0,12.8,1504.7,145.3,-0.6,1.0,1992.548,13.28,0.025,207.6
09,2022-09-16T21:30:00,2000.0,42.79,6.0312,-0.013,-0.01,-0.003,63.0,56.0,60.0,12.8,1504.7,143.5,-0.7,1.0,1992.551,13.28,0.016,232.4
09,2022-09-16T22:00:00,2000.0,42.79,6.0312,-0.011,-0.018,-0.021,62.0,59.0,58.0,12.8,1504.7,138.3,-0.6,1.0,1992.538,13.28,0.021,211.4
09,2022-09-16T22:30:00,2000.0,42.79,6.0312,0.003,0.006,-0.014,64.0,59.0,59.0,12.8,1504.7,123.2,-0.6,0.9,1992.586,13.28,0.006,26.6
09,2022-09-16T23:00:00,2000.0,42.79,6.0312,-0.009,0.0,-0.014,60.0,59.0,61.0,12.8,1504.7,122.3,-0.6,1.0,1992.548,13.28,0.009,270.0
